* Astronomy

Members Login
Post Info TOPIC: Shavit rocket body re-entry


L

Posts: 131433
Date:
RE: Shavit rocket body re-entry
Permalink  
 


Update:
The Shavit rocket body re-entered the Earths atmosphere on the 27th March, 2011 @ 17:47 GMT  ± 52 minures.

Inclination: 141.75°
Revolution Number: 4344
Predicted Location:  3.3°N, 159.6°E



__________________


L

Posts: 131433
Date:
Permalink  
 

Update:
The Shavit rocket body is predicted to re-enter the Earths atmosphere on the 27th March, 2011 @ 17:46 GMT  ± 5 hours.

TLE Data

SHAVIT RB
1 36609U 10031B 11086.37180106 .08952838 -15032-4 10577-2 0 3648
2 36609 141.7477 251.4028 0013149 251.5665 108.3722 16.35124676 43378


Period:       88.14 minutes
Inclination: 141.75°
Apogee:     191 km
Perigee:     174 km
Revolution Number: 4344
Predicted Location:  1.2°N, 162.5°E



__________________


L

Posts: 131433
Date:
Permalink  
 

Update:
The Shavit rocket body is predicted to re-enter the Earths atmosphere on the 27th March, 2011 @ 17:50 GMT  ± 24 hours.

TLE Data

SHAVIT RB
1 36609U 10031B 11084.95959474 .02778211 -14532-4 12849-2 0 3555
2 36609 141.7486 241.4985 0019844 235.5002 124.4605 16.20087906 43146


Period:       89.08 minutes
Inclination: 141.76°
Apogee:     245 km
Perigee:     213 km
Revolution Number: 4344
Predicted Location:  12.6°N, 146.5°E



__________________


L

Posts: 131433
Date:
Permalink  
 

Update:
The Shavit rocket body is predicted to re-enter the Earths atmosphere on the 27th March, 2011 @ 20:36 GMT  ± 15 hours.

TLE Data

SHAVIT RB
1 36609U 10031B 11083.66277311 .01873194 30121-2 14202-2 0 3509
2 36609 141.7570 232.5135 0025029 217.6252 142.2789 16.13971384 42939


Period:       89.48 minutes
Inclination: 141.76°
Apogee:     269 km
Perigee:     228 km
Revolution Number: 4344
Predicted Location:  15.4°S, 142.6°E



__________________


L

Posts: 131433
Date:
Permalink  
 

Update:
A Shavit rocket body is predicted to re-enter the Earths atmosphere on the 27th March, 2011 @ 18:42 GMT  ± 48 hours.

TLE Data

SHAVIT RB
1 36609U 10031B 11082.60990268 .01408535 12635-2 13103-2 0 3417
2 36609 141.7579 225.2657 0029625 205.0638 154.9122 16.10304228 42767


Period:       89.62 minutes
Inclination: 141.76°
Apogee:     279 km
Perigee:     233 km
Revolution Number: 4345
Predicted Location:  29.1°S, 285.6°E



__________________


L

Posts: 131433
Date:
Permalink  
 

Update:
A Shavit rocket body is predicted to re-enter the Earths atmosphere on the 21st March, 2011 @ --:-- GMT  ±-- hours.

TLE Data

SHAVIT RB
1 36609U 10031B 11073.13200846 .00720667 19429-3 15321-2 0 3146
2 36609 141.7600 161.0939 0057308 115.4864 245.1500 15.94427144 41245


Period:       90.39 minutes
Inclination: 141.76°
Apogee:     334 km
Perigee:     253 km
Size:          1.36 metres
Revolution Number: -
Predicted Location:  -



__________________


L

Posts: 131433
Date:
Permalink  
 

A Shavit rocket body that was launched on the 22nd June, 2010, from the Palmachim Air Force Base, Israel, for the Ofeq-9 satellite mission is predicted to re-enter the Earths atmosphere on the 21st March, 2011 @ --:-- GMT  ±-- hours.

TLE Data

SHAVIT RB
1 36609U 10031B 11069.36866742 .00562764 10080-3 14842-2 0 3030
2 36609 141.7626 135.8865 0068957 080.5458 280.2994 15.89331893 40642


Period:       90.69 minutes
Inclination: 141.76°
Apogee:     357 km
Perigee:     260 km
Size:          1.36 metres
Revolution Number: -
Predicted Location:  -



__________________
Page 1 of 1  sorted by
 
Quick Reply

Please log in to post quick replies.



Create your own FREE Forum
Report Abuse
Powered by ActiveBoard